GPS BIIR-2 (PRN 13)

Last updated on July 6, 2021, 3:39 p.m. UTC

1 24876U 97035A   21186.84851538  .00000069  00000-0  00000-0 0  9996
2 24876  55.4767 169.1942 0048974  53.2680 307.1725  2.00562620175709
UTC
Height (km)
Latitude
Longitude
Inclination
Orbital Period
UTC large
Height (km)
Speed (km/s)
/
Latitude / Longitude
Inclination (degrees)
Orbital Period (minutes)
Azimuth
Elevation
Range (km)
Doppler Factor
iOS Compass Heading
iOS Angle